User: anonymous   Login
Location: Unspecified
(0.0000°N, 0.0000°E)
Time: 10:43:24
(UTC+00:00)
Language:

Oscar 19 - Orbit

View from above orbital plane
View from above orbital plane
View from above satellite
View from above satellite

Ground track
Ground track

The orbit data is extracted from the following two-line orbital elements,

1 20442U 90005G   19081.82642651 +.00000005 +00000-0 +18254-4 0  9998
2 20442 098.6406 024.0136 0012710 051.9188 308.3140 14.32920019523736
Epoch (UTC): 22 March 2019 19:50:03
Eccentricity: 0.0012710
inclination: 98.6406°
perigee height: 773 km
apogee height: 791 km
right ascension of ascending node: 24.0136°
argument of perigee: 51.9188°
revolutions per day: 14.32920019
mean anomaly at epoch: 308.3140°
orbit number at epoch: 52373

The dashed part of the orbit path shows where the satellite is in the earth's shadow,  

DLR